TOTTORI_AIRPORT current weather conditions

sailwx.info

Wind from 190 at 5 knots

Air temperature 4.0° C
Visibility: greater than 5.4 NM
Dewpoint -0.0° C

Last reported at 2017-Feb-25 12:00 UTC.
Time now 2017-Feb-25 20:38 UTC

Location: N 35°32' E 134°10'.
View on Google Maps.

See reports from other nearby stations

  
Tides and Currents Weather Stations Pressure Air Temp Water Temp Dewpoint Dewpoint Depression Visibility Wind Speed Wind Dir Waves Ship Positions
date/time (UTC)wind fromknots sea level pressurealtimeterstation pressurevisibilityair tempwater tempwave heightnotes
2017-Feb-25 12:00 190 5 5.4 4.0
2017-Feb-25 11:00 220 6 5.4 6.0
2017-Feb-25 10:00 240 7 5.4 6.0
2017-Feb-25 09:00 240 13 5.4 7.0
2017-Feb-25 08:00 250 13 5.4 8.0
2017-Feb-25 07:00 270 19 5.4 8.0
2017-Feb-25 06:00 280 14 5.4 8.0
2017-Feb-25 05:00 280 13 5.4 8.0
2017-Feb-25 04:00 260 6 5.4 8.0
2017-Feb-25 03:00 210 9 5.4 8.0
2017-Feb-25 02:00 270 6 5.4 7.0
2017-Feb-25 01:00 190 5 5.4 7.0
2017-Feb-25 00:00 140 7 5.4 5.0
2017-Feb-24 23:00 140 6 5.4 3.0
2017-Feb-24 22:00 140 8 5.4 3.0
2017-Feb-24 21:30 140 8 5.4 3.0
2017-Feb-24 21:10 140 6 5.4 3.0
2017-Feb-24 12:00 170 4 5.4 4.0 Light rain showers.
2017-Feb-24 11:00 5.4 5.0
2017-Feb-24 10:00 230 6 5.4 5.0 Light rain showers.
2017-Feb-24 09:00 200 4 5.4 6.0
2017-Feb-24 08:00 5.4 6.0
2017-Feb-24 07:00 320 4 5.4 6.0
2017-Feb-24 06:00 360 4 5.4 7.0
2017-Feb-24 05:00 020 6 5.4 7.0
2017-Feb-24 04:00 010 7 5.4 5.0 Light rain showers.
2017-Feb-24 03:00 030 8 5.4 6.0
2017-Feb-24 02:00 020 15 5.4 6.0
2017-Feb-24 01:00 030 9 5.4 5.0
2017-Feb-24 00:00 020 12 5.4 5.0
2017-Feb-23 23:00 010 12 5.4 5.0
2017-Feb-23 22:00 360 14 5.4 5.0
2017-Feb-23 21:30 360 14 5.4 4.0
2017-Feb-23 21:10 010 17 5.4 4.0